W7KKE-3 Weather Reports


Display with metric or nautical units.
time (UTC)temp
F
wind
direction
speed
MPH
gust
MPH
rain 1hr
in
rain 24hr
in
rain mn
in
humidity
%
barometer
mb
20140922080724 60 168 1.0 5.0 0.00 0.00 0.00 92 1015.5
20140922080224 61 184 0.0 7.0 0.00 0.00 0.00 92 1015.5
20140922075724 61 138 5.0 7.0 0.00 0.00 0.00 92 1015.6
20140922075224 61 182 1.0 7.0 0.00 0.00 0.00 92 1015.7
20140922074724 61 0 0.0 0.0 0.00 0.00 0.00 92 1015.6
20140922072724 61 140 4.0 10.0 0.00 0.00 0.00 92 1015.5
20140922072224 61 138 1.0 8.0 0.00 0.00 0.00 92 1015.5
20140922071724 61 147 6.0 8.0 0.00 0.00 0.00 92 1015.6
20140922071224 61 165 0.0 8.0 0.00 0.00 0.00 92 1015.6
20140922070724 61 145 0.0 8.0 0.00 0.00 0.00 92 1015.6
20140922070224 61 123 5.0 8.0 0.00 0.00 0.00 92 1015.5
20140922065724 61 119 0.0 6.0 0.00 0.00 0.00 92 1015.4
20140922062724 61 127 3.0 8.0 0.00 0.00 0.00 92 1015.4
20140922062224 61 114 5.0 8.0 0.00 0.00 0.00 92 1015.4
20140922061724 61 93 2.0 6.0 0.00 0.00 0.00 92 1015.5
20140922061224 61 158 1.0 6.0 0.00 0.00 0.00 92 1015.5
20140922060724 61 152 3.0 6.0 0.00 0.00 0.00 92 1015.5
20140922060224 61 0 0.0 6.0 0.00 0.00 0.00 92 1015.5
20140922055724 61 121 2.0 5.0 0.00 0.00 0.00 92 1015.6
20140922055224 61 183 1.0 5.0 0.00 0.00 0.00 92 1015.6
20140922054724 61 0 0.0 7.0 0.00 0.00 0.00 92 1015.5
20140922052724 61 151 2.0 10.0 0.00 0.00 0.00 91 1015.6
20140922052224 61 89 2.0 10.0 0.00 0.00 0.00 91 1015.5
20140922050224 61 177 0.0 10.0 0.00 0.00 0.00 91 1015.5
20140922045724 61 124 4.0 6.0 0.00 0.00 0.00 91 1015.5
20140922045224 61 149 3.0 8.0 0.00 0.00 0.00 91 1015.4
20140922044724 61 134 4.0 8.0 0.00 0.00 0.00 91 1015.4
20140922044224 61 140 1.0 8.0 0.00 0.00 0.00 91 1015.4
20140922043724 61 121 1.0 6.0 0.00 0.00 0.00 91 1015.4
20140922043224 61 135 2.0 6.0 0.00 0.00 0.00 91 1015.3
20140922042725 61 163 0.0 10.0 0.00 0.00 0.00 91 1015.4
20140922042224 61 163 1.0 10.0 0.00 0.00 0.00 91 1015.3
20140922041724 61 113 6.0 10.0 0.00 0.00 0.00 91 1015.4
20140922041224 61 176 2.0 9.0 0.00 0.00 0.00 91 1015.4
20140922040724 61 140 6.0 9.0 0.00 0.00 0.00 91 1015.5
20140922035224 61 191 1.0 7.0 0.00 0.00 0.00 91 1015.4
20140922034724 61 0 0.0 0.0 0.00 0.00 0.00 91 1015.4
20140922034224 61 0 0.0 6.0 0.00 0.00 0.00 91 1015.4
20140922033724 61 149 0.0 6.0 0.00 0.00 0.00 91 1015.4
20140922033224 61 0 0.0 6.0 0.00 0.00 0.00 91 1015.3
20140922032724 61 201 4.0 6.0 0.00 0.00 0.00 91 1015.4
20140922032224 61 168 2.0 8.0 0.00 0.00 0.00 91 1015.3
20140922031724 61 140 2.0 8.0 0.00 0.00 0.00 91 1015.4
20140922031224 61 187 1.0 8.0 0.00 0.00 0.00 91 1015.4
20140922030724 61 159 5.0 7.0 0.00 0.00 0.00 91 1015.4
20140922030224 61 138 5.0 7.0 0.00 0.00 0.00 91 1015.3
20140922025726 62 208 5.0 8.0 0.00 0.00 0.00 90 1015.2
20140922025224 62 154 0.0 8.0 0.00 0.00 0.00 90 1015.1
20140922024724 62 172 5.0 8.0 0.00 0.00 0.00 90 1015.2
20140922024224 62 140 1.0 7.0 0.00 0.00 0.00 90 1015.1
20140922023724 62 158 5.0 10.0 0.00 0.00 0.00 90 1015.0
20140922023224 62 162 4.0 10.0 0.00 0.00 0.00 90 1015.0
20140922022724 62 147 1.0 10.0 0.00 0.00 0.00 90 1014.9
20140922022224 62 142 7.0 10.0 0.00 0.00 0.00 90 1014.9
20140922021724 62 163 4.0 10.0 0.00 0.00 0.00 89 1014.8
20140922021224 62 154 4.0 9.0 0.00 0.00 0.00 89 1014.8
20140922020724 62 152 3.0 8.0 0.00 0.00 0.00 89 1014.8
20140922020224 62 182 5.0 8.0 0.00 0.00 0.00 89 1014.7
20140922015724 62 152 5.0 12.0 0.00 0.00 0.00 89 1014.7
20140922015224 62 137 5.0 12.0 0.00 0.00 0.00 89 1014.7
20140922014724 62 182 5.0 12.0 0.00 0.00 0.00 89 1014.7
20140922014225 62 162 8.0 11.0 0.00 0.00 0.00 89 1014.7
20140922013724 62 154 6.0 10.0 0.00 0.00 0.00 88 1014.7
20140922013224 62 175 6.0 14.0 0.00 0.00 0.00 88 1014.7
20140922012724 62 159 6.0 14.0 0.00 0.00 0.00 88 1014.7
20140922012224 62 144 7.0 14.0 0.00 0.00 0.00 88 1014.8
20140922011724 62 156 6.0 12.0 0.00 0.00 0.00 88 1014.7
20140922011224 62 149 7.0 12.0 0.00 0.00 0.00 88 1014.7
20140922010724 62 149 8.0 12.0 0.00 0.00 0.00 87 1014.7
20140922010224 62 151 8.0 14.0 0.00 0.00 0.00 87 1014.6
20140922005724 62 156 8.0 14.0 0.00 0.00 0.00 87 1014.7
20140922005224 62 149 6.0 14.0 0.00 0.00 0.00 87 1014.6
20140922004724 62 137 8.0 13.0 0.00 0.00 0.00 87 1014.6
20140922004224 62 138 9.0 13.0 0.00 0.00 0.00 86 1014.5
20140922003724 63 147 8.0 15.0 0.00 0.00 0.00 86 1014.5
20140922003224 63 130 7.0 15.0 0.00 0.00 0.00 86 1014.5
20140922002724 63 197 7.0 15.0 0.00 0.00 0.00 86 1014.5
20140922002223 63 141 8.0 14.0 0.00 0.00 0.00 86 1014.5
20140922001723 63 148 7.0 16.0 0.00 0.00 0.00 86 1014.5
20140922001224 63 145 9.0 16.0 0.00 0.00 0.00 86 1014.4
20140922000724 63 119 8.0 16.0 0.00 0.00 0.00 86 1014.5
20140922000224 63 155 8.0 17.0 0.00 0.00 0.00 86 1014.4
20140921235724 63 194 8.0 17.0 0.00 0.00 0.00 86 1014.4
20140921235224 63 130 8.0 17.0 0.00 0.00 0.00 86 1014.4
20140921234724 63 166 11.0 16.0 0.00 0.00 0.00 86 1014.6
20140921234223 63 193 6.0 16.0 0.00 0.00 0.00 86 1014.6
20140921233723 63 189 9.0 16.0 0.00 0.00 0.00 86 1014.6
20140921233223 63 159 7.0 16.0 0.00 0.00 0.00 86 1014.5
20140921232724 63 149 6.0 16.0 0.00 0.00 0.00 86 1014.6
20140921232223 63 121 10.0 16.0 0.00 0.00 0.00 86 1014.5
20140921231724 63 158 11.0 21.0 0.00 0.00 0.00 86 1014.5
20140921231223 63 144 12.0 21.0 0.00 0.00 0.00 86 1014.5
20140921230723 63 182 10.0 21.0 0.00 0.00 0.00 86 1014.5
20140921230224 63 133 11.0 21.0 0.00 0.00 0.00 85 1014.4
20140921225723 63 144 10.0 18.0 0.00 0.00 0.00 85 1014.5
20140921225223 63 151 11.0 18.0 0.00 0.00 0.00 85 1014.5
20140921224723 63 131 9.0 18.0 0.00 0.00 0.00 85 1014.5
20140921224223 63 141 8.0 18.0 0.00 0.00 0.00 85 1014.3
20140921223723 64 170 11.0 19.0 0.00 0.00 0.00 84 1014.4
20140921223223 64 123 8.0 19.0 0.00 0.00 0.00 84 1014.4
20140921222723 64 166 9.0 19.0 0.00 0.00 0.00 84 1014.3
20140921222224 64 168 10.0 18.0 0.00 0.00 0.00 83 1014.3
20140921221723 65 154 11.0 18.0 0.00 0.00 0.00 83 1014.4
20140921221223 65 151 10.0 22.0 0.00 0.00 0.00 83 1014.5
20140921220723 65 175 8.0 22.0 0.00 0.00 0.00 83 1014.5
20140921220223 64 175 12.0 22.0 0.00 0.00 0.00 84 1014.5
20140921215723 64 155 10.0 22.0 0.00 0.00 0.00 84 1014.5
20140921215223 64 124 8.0 21.0 0.00 0.00 0.00 85 1014.5
20140921214723 64 134 8.0 21.0 0.00 0.00 0.00 85 1014.7
20140921214223 64 183 13.0 21.0 0.00 0.00 0.00 84 1014.6
20140921213723 64 204 11.0 21.0 0.00 0.00 0.00 84 1014.5
20140921213223 64 144 10.0 21.0 0.00 0.00 0.00 84 1014.5
20140921212223 64 142 10.0 23.0 0.00 0.00 0.00 84 1014.5
20140921211723 64 179 9.0 23.0 0.00 0.00 0.00 84 1014.5
20140921211223 64 155 12.0 23.0 0.00 0.00 0.00 84 1014.4
20140921210723 64 165 11.0 23.0 0.00 0.00 0.00 84 1014.4
20140921210223 64 166 13.0 23.0 0.00 0.00 0.00 85 1014.4
20140921205723 63 155 11.0 23.0 0.00 0.00 0.00 85 1014.3
20140921205223 63 175 11.0 23.0 0.00 0.00 0.00 85 1014.4
20140921204723 64 158 12.0 23.0 0.00 0.00 0.00 85 1014.4
20140921204223 64 133 11.0 20.0 0.00 0.00 0.00 84 1014.3
20140921203723 64 131 12.0 20.0 0.00 0.00 0.00 84 1014.3
20140921202723 64 176 12.0 18.0 0.00 0.00 0.00 85 1014.3
20140921202223 64 152 9.0 20.0 0.00 0.00 0.00 85 1014.3
20140921200723 64 149 9.0 18.0 0.00 0.00 0.00 85 1014.3
20140921200223 64 156 9.0 15.0 0.00 0.00 0.00 85 1014.4
20140921194223 64 163 10.0 19.0 0.00 0.00 0.00 86 1014.5
20140921193723 63 165 9.0 19.0 0.00 0.00 0.00 87 1014.7
20140921193223 63 166 9.0 20.0 0.00 0.00 0.00 87 1014.6
20140921192723 63 182 10.0 20.0 0.00 0.00 0.00 87 1014.6
20140921192223 63 156 10.0 20.0 0.00 0.00 0.00 88 1014.6
20140921191724 63 119 9.0 16.0 0.00 0.00 0.00 87 1014.6
20140921191223 63 193 8.0 19.0 0.00 0.00 0.00 88 1014.7
20140921190723 63 147 9.0 19.0 0.00 0.00 0.00 88 1014.7
20140921190223 63 140 10.0 19.0 0.00 0.00 0.00 87 1014.7
20140921184723 63 163 10.0 15.0 0.00 0.00 0.00 88 1014.7
20140921182723 63 189 8.0 18.0 0.00 0.00 0.00 88 1014.8
20140921182223 62 169 9.0 21.0 0.00 0.00 0.00 88 1014.8
20140921180723 63 180 10.0 15.0 0.00 0.00 0.00 88 1014.7
20140921180223 63 152 5.0 15.0 0.00 0.00 0.00 89 1014.7
20140921175723 63 133 7.0 15.0 0.00 0.00 0.00 89 1014.6
20140921175223 63 177 6.0 13.0 0.00 0.00 0.00 89 1014.5
20140921174723 63 173 6.0 11.0 0.00 0.00 0.00 89 1014.5
20140921174223 63 148 7.0 11.0 0.00 0.00 0.00 89 1014.4
20140921173723 63 116 4.0 9.0 0.00 0.00 0.00 89 1014.3
20140921173223 63 182 3.0 13.0 0.00 0.00 0.00 89 1014.3
20140921172723 63 158 6.0 13.0 0.00 0.00 0.00 90 1014.3
20140921171223 62 201 3.0 13.0 0.00 0.00 0.00 90 1014.2
20140921165223 62 100 7.0 11.0 0.00 0.00 0.00 90 1014.2
20140921164723 62 158 7.0 14.0 0.00 0.00 0.00 91 1014.2
20140921164223 62 130 7.0 14.0 0.00 0.00 0.00 91 1014.2
20140921163723 61 133 6.0 14.0 0.00 0.00 0.00 91 1014.2
20140921163223 62 172 6.0 12.0 0.00 0.00 0.00 90 1014.2
20140921162723 62 159 7.0 11.0 0.00 0.00 0.00 91 1014.2
20140921162223 62 79 3.0 11.0 0.00 0.00 0.00 91 1014.0
20140921161723 62 141 7.0 11.0 0.00 0.00 0.00 91 1014.1
20140921161223 62 145 4.0 9.0 0.00 0.00 0.00 91 1014.0
20140921160723 61 133 6.0 13.0 0.00 0.00 0.00 91 1013.9
20140921160223 61 105 3.0 13.0 0.00 0.00 0.00 91 1014.0
20140921155723 61 144 7.0 13.0 0.00 0.00 0.00 91 1014.0
20140921155223 61 131 5.0 12.0 0.00 0.00 0.00 91 1014.0
20140921154723 61 140 5.0 8.0 0.00 0.00 0.00 91 1013.9
20140921154224 61 148 5.0 11.0 0.00 0.00 0.00 91 1013.9
20140921153723 61 148 7.0 11.0 0.00 0.00 0.00 91 1013.9
20140921153223 61 110 0.0 11.0 0.00 0.00 0.00 91 1013.8
20140921152723 61 196 8.0 11.0 0.00 0.00 0.00 91 1013.8
20140921152223 61 208 4.0 11.0 0.00 0.00 0.00 91 1013.7
20140921151723 61 140 4.0 11.0 0.00 0.00 0.00 91 1013.6
20140921151223 61 0 0.0 10.0 0.00 0.00 0.00 91 1013.6
20140921150723 61 106 3.0 10.0 0.00 0.00 0.00 91 1013.5
20140921150223 61 221 0.0 10.0 0.00 0.00 0.00 91 1013.5
20140921145723 61 147 0.0 9.0 0.00 0.00 0.00 91 1013.5
20140921145224 61 155 0.0 7.0 0.00 0.00 0.00 91 1013.5
20140921144723 61 163 5.0 10.0 0.00 0.00 0.00 91 1013.5
20140921144223 61 141 4.0 10.0 0.00 0.00 0.00 91 1013.5
20140921143723 61 124 2.0 10.0 0.00 0.00 0.00 91 1013.5
20140921143223 61 134 5.0 7.0 0.00 0.00 0.00 91 1013.5
20140921142723 61 155 0.0 10.0 0.00 0.00 0.00 91 1013.4
20140921142223 61 151 0.0 10.0 0.00 0.00 0.00 91 1013.4
20140921141723 60 120 5.0 10.0 0.00 0.00 0.00 91 1013.4
20140921141223 60 134 2.0 4.0 0.00 0.00 0.00 91 1013.5
20140921140723 60 70 0.0 11.0 0.00 0.00 0.00 91 1013.5
20140921140223 60 162 4.0 11.0 0.00 0.00 0.00 91 1013.4
20140921135723 60 56 6.0 11.0 0.00 0.00 0.00 91 1013.4
20140921135223 60 179 3.0 6.0 0.00 0.00 0.00 91 1013.4
20140921134723 60 147 0.0 10.0 0.00 0.00 0.00 91 1013.4
20140921134223 60 186 2.0 10.0 0.00 0.00 0.00 91 1013.2
20140921133723 60 190 5.0 10.0 0.00 0.00 0.00 91 1013.3
20140921133223 60 144 0.0 8.0 0.00 0.00 0.00 91 1013.3
20140921132723 60 155 3.0 8.0 0.00 0.00 0.00 91 1013.2
20140921132223 61 135 0.0 12.0 0.00 0.00 0.00 91 1013.2
20140921131723 61 120 0.0 12.0 0.00 0.00 0.00 91 1013.2
20140921131223 60 163 2.0 12.0 0.00 0.00 0.00 91 1013.1
20140921130723 60 134 0.0 9.0 0.00 0.00 0.00 91 1013.1
20140921130223 60 0 0.0 9.0 0.00 0.00 0.00 91 1013.0
20140921125723 60 137 4.0 9.0 0.00 0.00 0.00 91 1013.0
20140921125223 60 134 2.0 9.0 0.00 0.00 0.00 91 1013.0
20140921124723 60 152 0.0 9.0 0.00 0.00 0.00 91 1012.9
20140921124223 60 147 5.0 9.0 0.00 0.00 0.00 91 1012.9
20140921123723 60 0 0.0 0.0 0.00 0.00 0.00 91 1012.9
20140921123224 60 155 0.0 13.0 0.00 0.00 0.00 91 1012.9
20140921122723 60 159 2.0 13.0 0.00 0.00 0.00 91 1012.9
20140921122223 60 198 3.0 13.0 0.00 0.00 0.00 91 1012.8
20140921121723 60 163 0.0 5.0 0.00 0.00 0.00 91 1012.8
20140921121223 60 124 0.0 10.0 0.00 0.00 0.00 91 1012.8
20140921120724 60 119 0.0 10.0 0.00 0.00 0.00 91 1012.8
20140921120223 60 196 5.0 10.0 0.00 0.00 0.00 91 1012.9
20140921115723 60 268 1.0 6.0 0.00 0.00 0.00 91 1012.8
20140921115224 60 133 0.0 6.0 0.00 0.00 0.00 91 1012.8
20140921114723 60 187 1.0 4.0 0.00 0.00 0.00 91 1012.8
20140921114223 60 0 0.0 9.0 0.00 0.00 0.00 91 1012.8
20140921113723 60 140 2.0 9.0 0.00 0.00 0.00 91 1012.8
20140921113223 60 0 0.0 9.0 0.00 0.00 0.00 91 1012.7
20140921112723 59 0 0.0 8.0 0.00 0.00 0.00 91 1012.7
20140921112223 60 141 3.0 8.0 0.00 0.00 0.00 91 1012.7
20140921111723 60 0 0.0 10.0 0.00 0.00 0.00 91 1012.7
20140921111223 59 172 3.0 10.0 0.00 0.00 0.00 91 1012.8
20140921110723 59 155 4.0 10.0 0.00 0.00 0.00 91 1012.9
20140921110223 60 163 3.0 8.0 0.00 0.00 0.00 91 1012.8
20140921105723 59 140 4.0 8.0 0.00 0.00 0.00 91 1012.8
20140921105223 60 151 1.0 8.0 0.00 0.00 0.00 91 1012.7
20140921104723 60 142 3.0 8.0 0.00 0.00 0.00 91 1012.6
20140921104223 59 158 3.0 7.0 0.00 0.00 0.00 91 1012.6
20140921103724 60 148 1.0 7.0 0.00 0.00 0.00 91 1012.6
20140921103223 60 0 0.0 7.0 0.00 0.00 0.00 91 1012.5
20140921102723 60 168 2.0 6.0 0.00 0.00 0.00 91 1012.5
20140921102223 59 158 5.0 8.0 0.00 0.00 0.00 91 1012.5
20140921101723 59 130 3.0 8.0 0.00 0.00 0.00 91 1012.4
20140921101224 59 162 5.0 8.0 0.00 0.00 0.00 91 1012.3
20140921100724 59 155 2.0 8.0 0.00 0.00 0.00 91 1012.2
20140921100223 59 147 1.0 7.0 0.00 0.00 0.00 90 1012.2
20140921095723 59 0 0.0 0.0 0.00 0.00 0.00 90 1012.3
20140921095224 59 0 0.0 0.0 0.00 0.00 0.00 90 1012.3
20140921094723 59 0 0.0 5.0 0.00 0.00 0.00 90 1012.4
20140921094223 59 0 0.0 5.0 0.00 0.00 0.00 90 1012.3
20140921092723 59 158 0.0 8.0 0.00 0.00 0.00 90 1012.3
20140921092223 59 147 1.0 8.0 0.00 0.00 0.00 90 1012.4
20140921091723 59 140 2.0 8.0 0.00 0.00 0.00 90 1012.4
20140921091223 59 151 0.0 6.0 0.00 0.00 0.00 90 1012.4
20140921090724 59 0 0.0 2.0 0.00 0.00 0.00 90 1012.3
20140921085223 59 0 0.0 0.0 0.00 0.00 0.00 90 1012.4
20140921084723 59 0 0.0 5.0 0.00 0.00 0.00 90 1012.5
20140921084223 59 0 0.0 5.0 0.00 0.00 0.00 90 1012.6
20140921083723 59 127 1.0 5.0 0.00 0.00 0.00 90 1012.5
20140921083223 59 0 0.0 0.0 0.00 0.00 0.00 89 1012.5
20140921082723 59 0 0.0 0.0 0.00 0.00 0.00 89 1012.4
20140921082223 59 0 0.0 0.0 0.00 0.00 0.00 89 1012.5
20140921081723 59 0 0.0 0.0 0.00 0.00 0.00 89 1012.5
20140921081223 59 0 0.0 0.0 0.00 0.00 0.00 89 1012.5